Paducah, KY

2:43 AM CDT on June 27, 2017 (GMT -0500)
Barkley Regional

Weather History for KPAH - February, 2012

Change the Weather History Date:

Wednesday, February 1, 2012

  Actual Average Record
Temperature  
Mean Temperature 53 °F 36 °F  
Max Temperature 60 °F 45 °F 70 °F (1974)
Min Temperature 46 °F 27 °F -11 °F (1951)
Degree Days  
Heating Degree Days 12 29  
Month to date heating degree days 12 29  
Since 1 July heating degree days 2184 2602  
Cooling Degree Days 0 0  
Month to date cooling degree days 0 0  
Year to date cooling degree days 0 0  
Growing Degree Days 4 (Base 50)    
Moisture  
Dew Point 52 °F    
Average Humidity 89    
Maximum Humidity 100    
Minimum Humidity 77    
Precipitation  
Precipitation 0.61 in 0.15 in 2.54 in (1988)
Month to date precipitation 0.61 0.15  
Year to date precipitation 4.16 3.83  
Snow  
Snow 0.00 in 0.10 in 2.00 in (1965)
Month to date snowfall 0.0 0.1  
Since 1 July snowfall 0.4 5.4  
Snow Depth 0.00 in    
Sea Level Pressure  
Sea Level Pressure 30.06 in    
Wind  
Wind Speed 5 mph (WNW)    
Max Wind Speed 12 mph    
Max Gust Speed 18 mph    
Visibility 6 miles    
Events Fog , Rain , Thunderstorm    
T = Trace of Precipitation, MM = Missing Value Source: NWS Daily Summary

Daily Weather History Graph

Daily Weather History Graph

Search for Another Location

Airport or City:

Trip Planner

Search our weather history database for the weather conditions in past years. The results will help you decide how hot, cold, wet, or windy it might be!

Date:

Astronomy

Feb. 01, 2012 Rise Set
Actual Time 6:58 AM CST 5:19 PM CST
Civil Twilight 6:30 AM CST 5:46 PM CST
Nautical Twilight 5:59 AM CST 6:18 PM CST
Astronomical Twilight 5:29 AM CST 6:48 PM CST
Moon 11:49 AM CST (2/1) 1:41 AM CST (2/1)
Length of Visible Light 11h 16m
Length of Day
10h 21m
Waxing Gibbous, 65% of the Moon is Illuminated
Feb 1
Waxing Gibbous
Feb 7
Full
Feb 14
Last Quarter
Feb 21
New
Feb 29
First Quarter

Hourly Weather History & Observations

Time (CST) Temp. Dew Point Humidity Pressure Visibility Wind Dir Wind Speed Gust Speed Precip Events Conditions
12:53 AM 53.6 °F 51.8 °F 94% 30.07 in 3.0 mi WSW 6.9 mph - N/A Rain Rain
12:58 AM 53.6 °F 51.8 °F 94% 30.07 in 2.5 mi SSW 3.5 mph - 0.02 in Rain Rain
1:16 AM 53.6 °F 51.8 °F 94% 30.07 in 6.0 mi SSW 6.9 mph - 0.09 in Rain Light Rain
1:53 AM 55.0 °F 51.1 °F 86% 30.06 in 10.0 mi SSW 5.8 mph - 0.10 in Rain Light Rain
2:53 AM 55.0 °F 50.0 °F 83% 30.06 in 10.0 mi SSW 5.8 mph - 0.00 in   Overcast
3:53 AM 53.1 °F 48.9 °F 86% 30.05 in 10.0 mi SW 3.5 mph - N/A   Mostly Cloudy
4:53 AM 53.1 °F 48.9 °F 86% 30.06 in 10.0 mi SSW 5.8 mph - N/A   Mostly Cloudy
5:31 AM 51.8 °F 48.2 °F 88% 30.06 in 10.0 mi WSW 4.6 mph - N/A   Overcast
5:53 AM 53.6 °F 50.0 °F 88% 30.07 in 10.0 mi Calm Calm - N/A   Overcast
6:08 AM 53.6 °F 48.2 °F 82% 30.07 in 10.0 mi SW 5.8 mph - N/A   Overcast
6:53 AM 53.1 °F 48.9 °F 86% 30.08 in 10.0 mi SSW 6.9 mph - N/A   Partly Cloudy
7:36 AM 53.6 °F 50.0 °F 88% 30.09 in 9.0 mi SW 6.9 mph - N/A   Mostly Cloudy
7:53 AM 54.0 °F 51.1 °F 90% 30.09 in 9.0 mi SW 6.9 mph - N/A   Mostly Cloudy
8:05 AM 55.4 °F 51.8 °F 88% 30.09 in 9.0 mi SW 4.6 mph - N/A   Mostly Cloudy
8:53 AM 55.9 °F 52.0 °F 87% 30.09 in 9.0 mi SSW 4.6 mph - N/A   Overcast
9:46 AM 57.2 °F 53.6 °F 88% 30.09 in 8.0 mi WSW 6.9 mph - N/A   Overcast
9:53 AM 57.9 °F 54.0 °F 87% 30.09 in 8.0 mi WSW 5.8 mph - N/A   Overcast
10:22 AM 57.2 °F 55.4 °F 94% 30.09 in 7.0 mi West 4.6 mph - N/A   Overcast
10:53 AM 59.0 °F 55.9 °F 90% 30.08 in 6.0 mi WNW 3.5 mph - N/A   Overcast
11:17 AM 59.0 °F 55.4 °F 88% 30.08 in 7.0 mi WNW 3.5 mph - N/A   Overcast
11:53 AM 59.0 °F 55.0 °F 87% 30.07 in 6.0 mi NNE 5.8 mph - N/A   Overcast
12:41 PM 59.0 °F 55.4 °F 88% 30.05 in 5.0 mi North 3.5 mph - N/A   Overcast
12:53 PM 59.0 °F 55.0 °F 87% 30.05 in 5.0 mi North 3.5 mph - N/A   Overcast
1:49 PM 57.2 °F 55.4 °F 94% 30.04 in 2.5 mi NW 5.8 mph - 0.00 in Rain Light Rain
1:53 PM 57.2 °F 55.4 °F 94% 30.04 in 2.0 mi NNW 4.6 mph - N/A Rain Light Rain
2:00 PM 57.2 °F 55.4 °F 94% 30.04 in 1.2 mi NNW 6.9 mph - 0.04 in Rain Rain
2:18 PM 55.4 °F 55.4 °F 100% 30.04 in 1.0 mi NNW 9.2 mph - 0.13 in Rain Rain
2:23 PM 55.4 °F 55.4 °F 100% 30.04 in 0.5 mi NNW 6.9 mph - 0.22 in Fog , Rain , Thunderstorm Heavy Thunderstorms and Rain
2:40 PM 55.4 °F 55.4 °F 100% 30.04 in 1.5 mi North 4.6 mph - 0.47 in Rain , Thunderstorm Light Thunderstorms and Rain
2:43 PM 55.4 °F 55.4 °F 100% 30.04 in 2.5 mi NNW 5.8 mph - 0.47 in Rain Light Rain
2:51 PM 55.4 °F 55.4 °F 100% 30.04 in 4.0 mi North 3.5 mph - 0.47 in   Overcast
2:53 PM 55.4 °F 55.4 °F 100% 30.04 in 4.0 mi NNW 3.5 mph - N/A   Overcast
3:53 PM 57.0 °F 55.0 °F 93% 30.02 in 5.0 mi NNE 3.5 mph - N/A   Overcast
4:53 PM 55.4 °F 53.6 °F 94% 30.02 in 2.0 mi Calm Calm - N/A   Clear
5:02 PM 55.4 °F 53.6 °F 94% 30.03 in 0.8 mi Calm Calm - N/A   Clear
5:05 PM 53.6 °F 53.6 °F 100% 30.03 in 0.2 mi Calm Calm - N/A Fog Fog
5:30 PM 53.6 °F 53.6 °F 100% 30.05 in 1.0 mi SW 4.6 mph - N/A   Mist
5:37 PM 53.6 °F 51.8 °F 94% 30.05 in 1.5 mi West 3.5 mph - N/A   Mostly Cloudy
5:53 PM 53.1 °F 52.0 °F 96% 30.04 in 0.8 mi Calm Calm - N/A   Scattered Clouds
6:45 PM 51.8 °F 51.8 °F 100% 30.06 in 1.8 mi West 5.8 mph - N/A   Mostly Cloudy
6:53 PM 52.0 °F 51.1 °F 97% 30.06 in 2.0 mi West 4.6 mph - N/A   Mostly Cloudy
7:25 PM 53.6 °F 51.8 °F 94% 30.07 in 5.0 mi NW 4.6 mph - N/A   Scattered Clouds
7:53 PM 52.0 °F 48.9 °F 89% 30.09 in 10.0 mi NNW 4.6 mph - N/A   Mostly Cloudy
8:53 PM 52.0 °F 45.0 °F 77% 30.10 in 10.0 mi North 4.6 mph - N/A   Mostly Cloudy
9:53 PM 48.9 °F 42.1 °F 77% 30.12 in 10.0 mi NNW 6.9 mph - N/A   Clear
10:53 PM 48.0 °F 41.0 °F 77% 30.13 in 10.0 mi North 8.1 mph - N/A   Clear
11:53 PM 46.9 °F 39.9 °F 77% 30.14 in 10.0 mi North 5.8 mph - N/A   Clear